CZ-4 DEB, 26286

Orbit data source: Space-Track

CZ-4 DEB, 26286 is space debris in SSO originally from a launch on Thu, 14 Oct 1999 UTC launched from the Taiyaun Space Center, China (TSC). Debris objects in space refer to the collection of defunct objects orbiting the Earth. Examples of debris include non-operational satellites, rocket bodies, and fragments generated from explosions, collisions, or faulty payload assembly.

Loading next visibility...
Identifier
26286, 1999-057FY
Orbit
SSO
Country
Flag of CNCN / PRC
Related business
Manufacturer
Unknown
Mission
Spacecraft
Bus & Motor
Unknown
Mass
Unknown
Launch date (UTC)
1999-10-14 (26 years ago)
Launch vehicle
Unknown
Launch site
Taiyaun Space Center, China (TSC)
Object type
Payload
Rocket body
Debris
Shape & HBR
Unknown shape, 0.1 m
Radar Cross Section
Small (<0.1 m²)

Expand to show TLE details & history
Last TLE update: 15 hours ago

TLE from 15 hours ago
0 CZ-4 DEB
1 26286U 99057FY  25296.67040861  .00004023  00000-0  78053-3 0  9995
2 26286  98.4173 352.8156 0059375 266.3155 219.2251 14.62684602352613
Epoch: 2025-10-23T16:05Z
TLE epoch observation values (Epoch: 2025-10-23T16:05:23.303Z)
Latitude
54.12075°
Longitude
-89.11722°
Altitude
726.009 km
Speed
7.48 km/s
True Right ascension
12h 18m 13s
True Declination
53° 57' 24"
Sunlit
Object was in daylight at epoch
Visualization orbit readout
Latitude
Unknown
Longitude
Unknown
Altitude
Unknown
Speed
Unknown
Apparent Right ascension
Unknown
Apparent Declination
Unknown
Sunlit
N/A
Visualization observer readout
Local Sidereal Time
02:17:47
Azimuth
Unknown
Elevation
Unknown
Doppler factor
Unknown
Orbital elements
Apogee altitude
723.524 km
Perigee altitude
639.689 km
Semi-major axis
7,059.744 km
Eccentricity
0.00594
Inclination
98.4173°
RAAN
352.8156°
Arg. of periapsis
266.3155°
True anomaly
218.79731°
Mean anomaly
219.2251°
Eccentric anomaly
219.01096°
Mean motion
3.65898 °/min
Orbital period
98.39 mins
BSTAR
0.00078053
Loading maneuver chart data...
Computing Atmospheric mass density...

Documentation

Showing up to 5 results
|